Kezdőlap
METAR-TAF:

METAR-TAF

Repülőterek :

Macomb Municipal Airport

Macomb, Illinois, Amerikai Egyesült Államok

földrajzi szélesség: 40-31-13N, földrajzi hosszúság: 090-39-09W, magasság: 216 m

Jelenlegi meteorológiai megfigyelések

A jelentés 25 perccel ezelõtt készült, 02:55 UTC
Dél-délkeleti szél 10 kt
Hőmérséklet 24°C
Páratartalom 74%
Légköri nyomás 1013 hPa
Látótávolság: 16.1 km
Derült ég

METAR: KMQB 270255Z AUTO 16010KT 10SM CLR 24/19 A2992 RMK AO2 T02360186

Idő: 22:20 (03:20 UTC)


TAF: hiányzik

Meteorológiai megfigyelések és előrejelzések több, mint 4000 repülőtéren (METAR és TAF jelentéseket).

A térképen piros és sárga pontok jelzik az elérhető meteorológiai állomásokat.

Mozgassa az egeret a pont fölött, hogy megjelenjen az állomás neve.

Azután kattintson az időjárási megfigyelések és előrejelzések megtekintéséhez.

A térkép megváltoztatása: kattintson a fekete keresztel jelölt zöld gombra ráközelítéshez, a vonallal jelölt zöld gombra távolításhoz, vagy a zöld nyilakra a szomszédos térképek eléréséhez.


METAR-TAF: